Regional Weather Roundup
Issued by NWS

Home | Current Version | Previous Version | Graphics & Text | Print | Product List | Glossary On
Versions: 1 2 3 4 5 6 7 8 9 10 11 12 13 14 15 16 17 18 19 20 21 22 23 24 25 26 27 28 29 30 31 32 33 34 35 36 37 38 39 40 41 42 43 44 45 46 47 48 49 50
000
ASUS43 KIND 250109
RWRIN

WEATHER ROUNDUP FOR INDIANA
NATIONAL WEATHER SERVICE INDIANAPOLIS IN
800 PM EST FRI FEB 24 2017

NOTE: "FAIR" INDICATES FEW OR NO CLOUDS BELOW 12,000 FEET WITH NO
SIGNIFICANT WEATHER AND/OR OBSTRUCTIONS TO VISIBILITY.

* - STATION DOES NOT REPORT WEATHER SUCH AS PRECIPITATION OR FOG.

+ - STATION NOT QUALITY CONTROLLED BY THE NATIONAL WEATHER SERVICE.
    USE DATA WITH CAUTION...ESPECIALLY DEWPOINT AND RELATIVE
    HUMIDITY OBSERVATIONS.

INZ001>003-010>013-019-020-250200-
NORTHWEST INDIANA

CITY           SKY/WX    TMP DP  RH WIND       PRES   REMARKS
GARY /AIRPORT/ CLOUDY    45  37  76 W21       29.54S
KNOX *+        CLOUDY    45  28  53 W15G25    29.53R
LA PORTE +     CLOUDY    37  37  99 W7        29.54R FOG
MICHIGAN CITY+ CLOUDY    36  36 100 W5        29.54R FOG
MONTICELLO +   CLOUDY    46  40  82 W18G24    29.56R
RENSSELAER +   CLOUDY    45  39  81 W18G30    29.57R
VALPARAISO     CLOUDY    41  40  96 N5        29.54R FOG

$$

LMZ046-743>745-250200-
SOUTHERN LAKE MICHIGAN

STATION/POSITION TIME  TEMP    WIND        PRES    WAVE
                       AIR SEA DIR/SP/G            HT
                 (UTC) (F)     (DEG/KT/KT) (MB)    (FT)
BURNS HARBOR     0040   36     330/  5/ 10 1001.4R
MICHIGAN CITY    0040   36     260/  9/  9   N/A

$$

INZ004-005-014>016-021>024-250200-
NORTH CENTRAL INDIANA

CITY           SKY/WX    TMP DP  RH WIND       PRES   REMARKS
ELKHART        CLOUDY    46  43  87 W16       29.50R
GOSHEN         LGT RAIN  49  45  86 W18G24    29.50R FOG
LOGANSPORT +   RAIN      46  43  87 W17G24    29.55R
PERU/GRISSOM   LGT RAIN  51  51 100 W23G30    29.52R
ROCHESTER +    LGT RAIN  50  46  87 W16G23    29.54R
SOUTH BEND     CLOUDY    40  40 100 W12G20    29.52R FOG
WARSAW +       HVY RAIN  52  48  87 W20G25    29.51R

$$

INZ006>009-017-018-025>027-250200-
NORTHEAST INDIANA

CITY           SKY/WX    TMP DP  RH WIND       PRES   REMARKS
ANGOLA *+      CLOUDY    59  59 100 SW12      29.46R
AUBURN +       HVY RAIN  63  54  72 SW10G18   29.48R
FORT WAYNE     LGT RAIN  62  55  77 SW17G25   29.48R
HUNTINGTON +   LGT RAIN  55  54  94 W15G29    29.50R
KENDALLVILLE + CLOUDY    58  54  89 W15G23    29.46R

$$

INZ028-029-035-036-043>045-051>053-250200-
WEST CENTRAL INDIANA

CITY           SKY/WX    TMP DP  RH WIND       PRES   REMARKS
LAFAYETTE      LGT RAIN  47  42  83 W18G26    29.58R
TERRE HAUTE    LGT RAIN  50  45  83 NW9       29.61R

$$

INZ030>032-037>040-046>048-054>057-064-065-250200-
CENTRAL INDIANA

CITY           SKY/WX    TMP DP  RH WIND       PRES   REMARKS
CP ATTERBURY + RAIN      64  52  63 SW20G29   29.54R
COLUMBUS       MOCLDY    59  57  94 S9        29.54R
FRANKFORT +    TSTM      52  48  86 NW26G32   29.58R
GREENWOOD *+   CLOUDY   N/A N/A N/A NW12G25   29.55R
INDIANAPOLIS   TSTM      53  50  89 W22G30    29.55R
-EAGLE CREEK   TSTM      53  50  89 W21       29.55R FOG
KOKOMO +       LGT RAIN  53  49  86 W24       29.53R
MARION +       LGT RAIN  54  52  92 W14       29.52R
MT COMFORT *+  MOCLDY    57  52  82 W16       29.53R
SHELBYVILLE    CLOUDY    64  52  64 SW12      29.52R
ZIONSVILLE +   RAIN      50  48  92 W16G30    29.57R

$$

INZ033-034-041-042-049-050-058-059-250200-
EAST CENTRAL INDIANA

CITY           SKY/WX    TMP DP  RH WIND       PRES   REMARKS
MUNCIE         CLOUDY    64  54  69 W6        29.50R

$$

INZ060-061-067>069-081>083-085>088-250200-
SOUTHWEST INDIANA

CITY           SKY/WX    TMP DP  RH WIND       PRES   REMARKS
EVANSVILLE     CLOUDY    58  50  75 W12G22    29.66R
HUNTINGBURG *+ LGT RAIN  62  56  80 SW16G23   29.62R
WASHINGTON +   RAIN      55  49  81 W16G22    29.63R

$$

INZ062-063-066-070>080-084-089>092-250200-
SOUTH CENTRAL AND SOUTHEAST INDIANA

CITY           SKY/WX    TMP DP  RH WIND       PRES   REMARKS
BEDFORD +      LGT RAIN  61  54  77 SW16G26   29.54
BLOOMINGTON    CLOUDY    54  49  83 W14G24    29.59R
MADISON *+     CLOUDY    59  57  94 S7        29.58S
NORTH VERNON + CLOUDY   N/A N/A N/A S8        29.54R
SEYMOUR +      CLOUDY    63  54  72 S9        29.55R

$$




USA.gov is the U.S. government's official web portal to all federal, state and local government web resources and services.